KN4CCE-13 Weather Reports


time (UTC)temp
F
wind
direction
speed
knots
gust
knots
rain 1hr
in
rain 24hr
in
rain mn
in
humidity
%
barometer
mb
20190426093702 68 135 0.9 2.6 0.00 0.00 0.00 73 1006.7
20190426093202 67 248 0.9 2.6 0.00 0.00 0.00 73 1006.7
20190426092658 67 113 0.9 2.6 0.00 0.00 0.00 73 1006.7
20190426092156 68 113 0.9 7.0 0.00 0.00 0.00 72 1006.5
20190426091152 68 135 1.7 6.1 0.00 0.00 0.00 71 1007.1
20190426090650 68 135 1.7 5.2 0.00 0.00 0.00 71 1006.7
20190426090148 68 113 0.9 6.1 0.00 0.00 0.00 71 1006.9
20190426085646 68 360 0.0 3.5 0.00 0.00 0.00 72 1007.2
20190426085144 68 158 0.9 5.2 0.00 0.00 0.00 72 1007.2
20190426084642 69 113 1.7 4.3 0.00 0.00 0.00 71 1007.1
20190426084140 69 135 0.9 3.5 0.00 0.00 0.00 71 1007.0
20190426083638 69 113 0.9 4.3 0.00 0.00 0.00 71 1007.1
20190426083137 69 135 1.7 7.0 0.00 0.00 0.00 71 1007.0
20190426082635 69 135 0.9 7.8 0.00 0.00 0.00 72 1007.1
20190426082134 69 135 0.9 3.5 0.00 0.00 0.00 72 1007.1
20190426081630 69 135 0.9 3.5 0.00 0.00 0.00 72 1007.3
20190426081128 69 135 1.7 5.2 0.00 0.00 0.00 72 1007.3
20190426080626 69 135 0.9 7.0 0.00 0.00 0.00 72 1007.4
20190426080124 69 360 0.0 3.5 0.00 0.00 0.00 72 1007.4
20190426075622 69 135 0.9 3.5 0.00 0.00 0.00 73 1007.4
20190426075120 69 90 0.9 4.3 0.00 0.00 0.00 73 1007.4
20190426074618 69 113 0.9 6.1 0.00 0.00 0.00 72 1007.4
20190426074116 69 113 0.9 6.1 0.00 0.00 0.00 73 1007.5
20190426073614 69 360 0.0 1.7 0.00 0.00 0.00 72 1007.7
20190426073128 69 113 0.9 5.2 0.00 0.00 0.00 73 1007.8
20190426072610 69 113 0.9 2.6 0.00 0.00 0.00 73 1007.8
20190426072108 69 113 0.9 2.6 0.00 0.00 0.00 72 1008.0
20190426071606 69 360 0.0 2.6 0.00 0.00 0.00 73 1008.0
20190426071104 70 113 0.9 6.1 0.00 0.00 0.00 72 1008.1
20190426070602 70 113 0.9 3.5 0.00 0.00 0.00 72 1008.1
20190426070100 70 360 0.0 3.5 0.00 0.00 0.00 72 1008.3
20190426065558 70 90 0.9 3.5 0.00 0.00 0.00 72 1008.3
20190426065056 70 158 0.9 3.5 0.00 0.00 0.00 71 1008.3
20190426064554 70 113 0.9 2.6 0.00 0.00 0.00 72 1008.4
20190426064052 70 90 0.9 5.2 0.00 0.00 0.00 72 1008.3
20190426063550 70 68 0.9 1.7 0.00 0.00 0.00 72 1008.4
20190426063048 70 360 0.0 2.6 0.00 0.00 0.00 72 1008.4
20190426062546 70 360 0.0 3.5 0.00 0.00 0.00 72 1008.6
20190426062044 70 360 0.0 6.1 0.00 0.00 0.00 72 1008.7
20190426061542 70 113 0.9 7.0 0.00 0.00 0.00 72 1008.8
20190426061040 70 113 0.9 5.2 0.00 0.00 0.00 72 1009.0
20190426060538 70 113 0.9 5.2 0.00 0.00 0.00 72 1009.0
20190426060036 70 158 0.9 5.2 0.00 0.00 0.00 72 1009.1
20190426055534 70 135 0.9 2.6 0.00 0.00 0.00 72 1009.3
20190426055032 70 360 0.0 0.9 0.00 0.00 0.00 72 1009.5
20190426054531 70 360 0.0 2.6 0.00 0.00 0.00 72 1009.6
20190426054028 70 360 0.0 2.6 0.00 0.00 0.00 72 1009.7
20190426053526 70 360 0.0 2.6 0.00 0.00 0.00 71 1009.7
20190426053024 70 360 0.0 4.3 0.00 0.00 0.00 71 1009.7
20190426052522 70 360 0.0 0.9 0.00 0.00 0.00 71 1009.7
20190426052020 70 90 0.9 3.5 0.00 0.00 0.00 71 1009.8
20190426051518 70 360 0.0 0.9 0.00 0.00 0.00 72 1009.9
20190426051016 70 113 0.9 3.5 0.00 0.00 0.00 70 1009.9
20190426050514 70 135 0.9 3.5 0.00 0.00 0.00 70 1009.9
20190426050012 70 360 0.0 2.6 0.00 0.00 0.00 71 1009.9
20190426045510 70 360 0.0 2.6 0.00 0.00 0.00 68 1010.0
20190426045008 71 360 0.0 4.3 0.00 0.00 0.00 68 1010.0
20190426044506 70 248 0.9 4.3 0.00 0.00 0.00 68 1010.0
20190426044004 70 360 0.0 2.6 0.00 0.00 0.00 68 1010.1
20190426043503 70 360 0.0 0.9 0.00 0.00 0.00 70 1010.2
20190426042748 70 113 0.9 2.6 0.00 0.00 0.00 69 1010.3
20190426042246 69 360 0.0 0.9 0.00 0.00 0.00 69 1010.4
20190426041530 70 360 0.0 1.7 0.00 0.00 0.00 69 1010.3
20190426041027 69 360 0.0 1.7 0.00 0.00 0.00 69 1010.4
20190426040526 69 360 0.0 0.0 0.00 0.00 0.00 69 1010.4
20190426040026 69 360 0.0 0.0 0.00 0.00 0.00 69 1010.5
20190426035524 69 360 0.0 0.0 0.00 0.00 0.00 71 1010.4
20190426035022 68 360 0.0 0.0 0.00 0.00 0.00 71 1010.4
20190426034520 68 360 0.0 0.0 0.00 0.00 0.00 73 1010.4
20190426034018 68 360 0.0 0.0 0.00 0.00 0.00 75 1010.5
20190426033516 68 360 0.0 0.0 0.00 0.00 0.00 74 1010.6
20190426033014 68 360 0.0 0.0 0.00 0.00 0.00 76 1010.7
20190426032512 68 360 0.0 0.9 0.00 0.00 0.00 77 1010.8
20190426032010 67 360 0.0 0.0 0.00 0.00 0.00 76 1010.8
20190426031508 68 360 0.0 0.0 0.00 0.00 0.00 76 1010.9
20190426031006 67 360 0.0 0.0 0.00 0.00 0.00 76 1010.9
20190426030504 68 360 0.0 0.0 0.00 0.00 0.00 77 1010.9
20190426030002 68 360 0.0 0.0 0.00 0.00 0.00 77 1010.8
20190426025500 68 360 0.0 0.0 0.00 0.00 0.00 75 1010.8
20190426025000 68 360 0.0 0.0 0.00 0.00 0.00 75 1010.8
20190426024458 68 360 0.0 0.9 0.00 0.00 0.00 76 1010.9
20190426023956 67 360 0.0 0.0 0.00 0.00 0.00 75 1010.9
20190426023454 67 360 0.0 0.0 0.00 0.00 0.00 77 1010.9
20190426022952 67 360 0.0 0.0 0.00 0.00 0.00 77 1010.8
20190426022450 67 360 0.0 0.0 0.00 0.00 0.00 77 1010.9
20190426021948 67 360 0.0 0.0 0.00 0.00 0.00 77 1010.9
20190426021236 68 360 0.0 0.0 0.00 0.00 0.00 76 1010.9
20190426020734 68 360 0.0 0.0 0.00 0.00 0.00 75 1010.9
20190426020232 68 360 0.0 0.0 0.00 0.00 0.00 75 1010.9
20190426015730 68 360 0.0 0.0 0.00 0.00 0.00 74 1010.9
20190426015228 69 360 0.0 0.9 0.00 0.00 0.00 72 1010.9
20190426014726 69 360 0.0 0.0 0.00 0.00 0.00 72 1010.9
20190426014224 69 360 0.0 0.0 0.00 0.00 0.00 73 1010.9
20190426013722 69 360 0.0 0.0 0.00 0.00 0.00 73 1010.9
20190426013220 69 360 0.0 0.0 0.00 0.00 0.00 74 1010.9
20190426012718 70 360 0.0 0.0 0.00 0.00 0.00 73 1011.0
20190426012216 70 360 0.0 0.0 0.00 0.00 0.00 74 1011.0
20190426011714 70 360 0.0 0.0 0.00 0.00 0.00 74 1011.0
20190426011212 70 360 0.0 0.0 0.00 0.00 0.00 73 1011.0
20190426010710 70 360 0.0 0.0 0.00 0.00 0.00 74 1011.1
20190426010208 70 360 0.0 0.0 0.00 0.00 0.00 72 1011.0
20190426005706 70 360 0.0 0.0 0.00 0.00 0.00 73 1010.9
20190426005204 71 360 0.0 0.0 0.00 0.00 0.00 72 1010.9
20190426004702 71 360 0.0 0.0 0.00 0.00 0.00 70 1010.9
20190426004200 72 360 0.0 0.0 0.00 0.00 0.00 71 1010.8
20190426003658 71 360 0.0 0.0 0.00 0.00 0.00 71 1010.7
20190426003156 72 360 0.0 0.0 0.00 0.00 0.00 71 1010.8
20190426002654 72 360 0.0 0.0 0.00 0.00 0.00 72 1010.7
20190426002152 72 360 0.0 0.0 0.00 0.00 0.00 72 1010.7
20190426001650 72 360 0.0 0.0 0.00 0.00 0.00 73 1010.6
20190426001148 72 360 0.0 0.0 0.00 0.00 0.00 73 1010.6
20190426000646 72 360 0.0 0.0 0.00 0.00 0.00 72 1010.6
20190426000204 73 360 0.0 0.0 0.00 0.00 0.00 72 1010.6
20190425235642 73 360 0.0 0.0 0.00 0.00 0.00 71 1010.6
20190425235139 73 360 0.0 0.9 0.00 0.00 0.00 71 1010.5
20190425234638 73 360 0.0 0.0 0.00 0.00 0.00 70 1010.5
20190425234135 74 360 0.0 0.0 0.00 0.00 0.00 69 1010.5
20190425233634 74 360 0.0 0.9 0.00 0.00 0.00 69 1010.4
20190425233131 75 360 0.0 0.0 0.00 0.00 0.00 68 1010.4
20190425232629 75 360 0.0 0.0 0.00 0.00 0.00 68 1010.4
20190425232128 75 360 0.0 0.0 0.00 0.00 0.00 67 1010.4
20190425231625 76 360 0.0 0.0 0.00 0.00 0.00 67 1010.4
20190425231124 76 360 0.0 0.0 0.00 0.00 0.00 67 1010.3
20190425230622 77 360 0.0 0.0 0.00 0.00 0.00 65 1010.4
20190425230121 78 360 0.0 0.0 0.00 0.00 0.00 62 1010.3
20190425225619 79 360 0.0 0.0 0.00 0.00 0.00 58 1010.4
20190425225118 79 360 0.0 0.0 0.00 0.00 0.00 58 1010.4
20190425224616 79 360 0.0 0.9 0.00 0.00 0.00 59 1010.4
20190425224114 79 360 0.0 0.9 0.00 0.00 0.00 60 1010.3
20190425223611 79 360 0.0 0.9 0.00 0.00 0.00 60 1010.3
20190425223110 79 360 0.0 2.6 0.00 0.00 0.00 57 1010.2
20190425222608 79 360 0.0 0.9 0.00 0.00 0.00 57 1010.1
20190425222105 79 360 0.0 0.0 0.00 0.00 0.00 59 1010.1
20190425221604 79 360 0.0 0.0 0.00 0.00 0.00 60 1010.1
20190425221101 79 360 0.0 0.0 0.00 0.00 0.00 59 1010.2
20190425220559 79 360 0.0 0.0 0.00 0.00 0.00 59 1010.2
20190425220057 80 360 0.0 0.0 0.00 0.00 0.00 58 1010.1
20190425215555 80 360 0.0 0.0 0.00 0.00 0.00 60 1010.1
20190425215053 80 360 0.0 0.9 0.00 0.00 0.00 57 1010.2
20190425214551 80 90 0.9 2.6 0.00 0.00 0.00 58 1010.2
20190425214049 79 113 0.9 1.7 0.00 0.00 0.00 60 1010.2
20190425213547 80 360 0.0 1.7 0.00 0.00 0.00 58 1010.2
20190425213045 80 360 0.0 1.7 0.00 0.00 0.00 57 1010.3
20190425212544 80 113 0.9 1.7 0.00 0.00 0.00 56 1010.2
20190425212041 80 360 0.0 1.7 0.00 0.00 0.00 56 1010.3
20190425211539 80 360 0.0 0.9 0.00 0.00 0.00 56 1010.3
20190425211037 80 113 0.9 2.6 0.00 0.00 0.00 58 1010.2
20190425210535 80 158 0.9 3.5 0.00 0.00 0.00 54 1010.1
20190425210033 80 135 0.9 2.6 0.00 0.00 0.00 54 1009.9
20190425205531 80 113 0.9 2.6 0.00 0.00 0.00 54 1010.0
20190425205029 80 180 0.9 3.5 0.00 0.00 0.00 54 1010.0
20190425204527 80 360 0.0 0.0 0.00 0.00 0.00 55 1010.1
20190425204025 80 360 0.0 0.0 0.00 0.00 0.00 60 1010.1
20190425203523 80 360 0.0 0.0 0.00 0.00 0.00 52 1010.0
20190425203021 80 360 0.0 0.0 0.00 0.00 0.00 51 1010.1
20190425202519 81 360 0.0 0.0 0.00 0.00 0.00 52 1010.1
20190425202017 80 360 0.0 0.0 0.00 0.00 0.00 54 1010.1
20190425201515 81 360 0.0 0.0 0.00 0.00 0.00 51 1009.9
20190425201013 81 360 0.0 0.0 0.00 0.00 0.00 50 1009.9
20190425200512 81 360 0.0 0.0 0.00 0.00 0.00 49 1010.0
20190425200009 80 360 0.0 0.0 0.00 0.00 0.00 54 1010.2
20190425195507 80 360 0.0 0.0 0.00 0.00 0.00 52 1010.3
20190425195005 81 360 0.0 0.0 0.00 0.00 0.00 51 1010.5
20190425194503 81 360 0.0 0.0 0.00 0.00 0.00 55 1010.6
20190425194001 80 360 0.0 0.0 0.00 0.00 0.00 59 1010.8
20190425193459 79 360 0.0 0.0 0.00 0.00 0.00 58 1010.9
20190425192957 79 360 0.0 0.0 0.00 0.00 0.00 61 1010.9
20190425192455 80 360 0.0 1.7 0.00 0.00 0.00 56 1011.0
20190425191953 79 360 0.0 1.7 0.00 0.00 0.00 59 1011.0
20190425191451 79 360 0.0 1.7 0.00 0.00 0.00 61 1011.0
20190425190949 79 315 0.9 1.7 0.00 0.00 0.00 59 1011.2
20190425190447 79 315 0.9 1.7 0.00 0.00 0.00 57 1011.4
20190425185945 78 315 0.9 1.7 0.00 0.00 0.00 62 1011.4
20190425185443 78 315 0.9 2.6 0.00 0.00 0.00 60 1011.5
20190425184941 78 315 0.9 2.6 0.00 0.00 0.00 61 1011.6
20190425184439 78 315 0.9 1.7 0.00 0.00 0.00 60 1011.7
20190425183937 78 315 0.9 1.7 0.00 0.00 0.00 60 1011.8
20190425183435 78 315 1.7 2.6 0.00 0.00 0.00 60 1011.8
20190425182933 78 315 1.7 3.5 0.00 0.00 0.00 56 1011.9
20190425182431 79 90 0.9 2.6 0.00 0.00 0.00 59 1011.8
20190425181931 80 90 0.9 1.7 0.00 0.00 0.00 58 1011.8
20190425181429 79 90 0.9 1.7 0.00 0.00 0.00 58 1011.7
20190425180927 79 90 0.9 1.7 0.00 0.00 0.00 60 1011.5
20190425180425 80 360 0.0 0.0 0.00 0.00 0.00 60 1011.4
20190425175923 79 360 0.0 0.9 0.00 0.00 0.00 61 1011.3
20190425175421 77 113 0.9 1.7 0.00 0.00 0.00 61 1011.1
20190425174919 78 158 0.9 1.7 0.00 0.00 0.00 59 1011.1
20190425174417 78 158 0.9 2.6 0.00 0.00 0.00 57 1011.0
20190425173915 79 90 0.9 3.5 0.00 0.00 0.00 56 1011.0
20190425173413 79 180 0.9 2.6 0.00 0.00 0.00 58 1011.1
20190425172911 80 135 0.9 2.6 0.00 0.00 0.00 59 1011.1
20190425172409 80 135 0.9 1.7 0.00 0.00 0.00 56 1011.2
20190425171907 80 135 0.9 3.5 0.00 0.00 0.00 56 1011.2
20190425171405 79 90 0.9 1.7 0.00 0.00 0.00 59 1011.2
20190425170903 78 135 0.9 1.7 0.00 0.00 0.00 59 1011.2
20190425170403 78 360 0.0 1.7 0.00 0.00 0.00 61 1011.2
20190425165901 77 360 0.0 1.7 0.00 0.00 0.00 64 1011.4
20190425165359 76 360 0.0 1.7 0.00 0.00 0.00 65 1011.5
20190425164857 77 360 0.0 0.0 0.00 0.00 0.00 64 1011.7
20190425164355 77 360 0.0 0.0 0.00 0.00 0.00 67 1011.7
20190425163853 76 225 0.9 1.7 0.00 0.00 0.00 65 1011.7
20190425163351 76 360 0.0 0.9 0.00 0.00 0.00 68 1011.8
20190425162849 76 203 0.9 2.6 0.00 0.00 0.00 67 1011.7
20190425162347 76 158 0.9 1.7 0.00 0.00 0.00 64 1011.7
20190425161845 77 360 0.0 2.6 0.00 0.00 0.00 65 1011.5
20190425161343 77 360 0.0 0.9 0.00 0.00 0.00 67 1011.2
20190425160843 76 360 0.0 1.7 0.00 0.00 0.00 66 1011.2
20190425160341 75 360 0.0 0.0 0.00 0.00 0.00 69 1011.3
20190425155839 75 360 0.0 0.0 0.00 0.00 0.00 64 1011.4
20190425155421 75 360 0.0 0.0 0.00 0.00 0.00 65 1011.7
20190425154835 76 135 0.9 2.6 0.00 0.00 0.00 63 1011.7
20190425154333 76 360 0.0 0.0 0.00 0.00 0.00 66 1011.8
20190425153621 76 360 0.0 0.0 0.00 0.00 0.00 63 1011.9
20190425153119 76 360 0.0 0.0 0.00 0.00 0.00 63 1011.8
20190425152617 77 360 0.0 0.0 0.00 0.00 0.00 63 1011.7
20190425152115 77 360 0.0 0.0 0.00 0.00 0.00 66 1011.9
20190425151613 77 360 0.0 0.0 0.00 0.00 0.00 65 1012.2
20190425151111 76 360 0.0 0.0 0.00 0.00 0.00 64 1012.4
20190425150609 76 360 0.0 0.0 0.00 0.00 0.00 66 1012.5
20190425150107 75 360 0.0 0.0 0.00 0.00 0.00 69 1012.6
20190425145605 74 360 0.0 0.0 0.00 0.00 0.00 66 1012.5
20190425145103 74 360 0.0 0.0 0.00 0.00 0.00 68 1012.5
20190425144601 74 360 0.0 0.0 0.00 0.00 0.00 67 1012.4
20190425143557 74 360 0.0 0.0 0.00 0.00 0.00 66 1012.5
20190425143055 73 360 0.0 0.0 0.00 0.00 0.00 66 1012.6
20190425142553 73 360 0.0 0.0 0.00 0.00 0.00 67 1012.5
20190425142051 73 360 0.0 0.0 0.00 0.00 0.00 71 1012.5
20190425141549 72 360 0.0 0.0 0.00 0.00 0.00 70 1012.6
20190425141047 71 360 0.0 0.0 0.00 0.00 0.00 69 1012.6
20190425140545 71 360 0.0 0.0 0.00 0.00 0.00 68 1012.6
20190425140043 71 360 0.0 0.0 0.00 0.00 0.00 70 1012.6
20190425135541 72 360 0.0 0.0 0.00 0.00 0.00 67 1012.6
20190425135039 72 360 0.0 0.0 0.00 0.00 0.00 69 1012.5
20190425134537 71 360 0.0 0.0 0.00 0.00 0.00 69 1012.5
20190425134034 71 360 0.0 0.0 0.00 0.00 0.00 70 1012.3
20190425133533 71 360 0.0 0.0 0.00 0.00 0.00 70 1012.4
20190425133031 70 360 0.0 0.0 0.00 0.00 0.00 70 1012.4
20190425132528 70 360 0.0 0.0 0.00 0.00 0.00 70 1012.5
20190425132027 70 360 0.0 0.0 0.00 0.00 0.00 73 1012.5
20190425131524 69 360 0.0 0.0 0.00 0.00 0.00 72 1012.5
20190425131023 68 360 0.0 0.0 0.00 0.00 0.00 73 1012.5
20190425130520 68 360 0.0 0.0 0.00 0.00 0.00 72 1012.5
20190425130023 67 360 0.0 0.0 0.00 0.00 0.00 74 1012.6
20190425125516 67 360 0.0 0.0 0.00 0.00 0.00 75 1012.6
20190425125016 66 360 0.0 0.0 0.00 0.00 0.00 75 1012.4
20190425124513 66 360 0.0 0.0 0.00 0.00 0.00 76 1012.4
20190425124011 66 360 0.0 0.0 0.00 0.00 0.00 77 1012.5
20190425123508 65 360 0.0 0.0 0.00 0.00 0.00 76 1012.4
20190425123007 65 360 0.0 0.0 0.00 0.00 0.00 78 1012.5
20190425122504 64 360 0.0 0.0 0.00 0.00 0.00 77 1012.7
20190425122002 63 360 0.0 0.0 0.00 0.00 0.00 77 1012.7
20190425121500 63 360 0.0 0.0 0.00 0.00 0.00 78 1012.7
20190425120958 63 360 0.0 0.0 0.00 0.00 0.00 78 1012.6
20190425120456 63 360 0.0 0.0 0.00 0.00 0.00 78 1012.5
20190425115955 63 360 0.0 0.0 0.00 0.00 0.00 77 1012.4
20190425115454 63 360 0.0 0.0 0.00 0.00 0.00 77 1012.3
20190425114952 63 360 0.0 0.0 0.00 0.00 0.00 78 1012.2
20190425114450 62 360 0.0 0.0 0.00 0.00 0.00 80 1012.0
20190425113948 62 360 0.0 0.0 0.00 0.00 0.00 82 1011.8
20190425113446 62 360 0.0 0.0 0.00 0.00 0.00 81 1011.9
20190425112944 62 360 0.0 0.0 0.00 0.00 0.00 81 1011.8
20190425112442 61 360 0.0 0.0 0.00 0.00 0.00 83 1011.8
20190425111940 60 360 0.0 0.0 0.00 0.00 0.00 83 1011.8
20190425111438 60 360 0.0 0.0 0.00 0.00 0.00 83 1011.9
20190425110936 60 360 0.0 0.0 0.00 0.00 0.00 82 1011.9
20190425110434 60 360 0.0 0.0 0.00 0.00 0.00 82 1011.9
20190425105932 60 360 0.0 0.0 0.00 0.00 0.00 82 1011.7
20190425105432 61 360 0.0 0.0 0.00 0.00 0.00 81 1011.9
20190425104716 60 360 0.0 0.0 0.00 0.00 0.00 81 1011.8
20190425104214 60 360 0.0 0.0 0.00 0.00 0.00 81 1011.7
20190425103712 60 360 0.0 0.0 0.00 0.00 0.00 81 1011.7
20190425103210 61 360 0.0 0.0 0.00 0.00 0.00 80 1011.5
20190425102708 61 360 0.0 0.0 0.00 0.00 0.00 79 1011.5
20190425102207 61 360 0.0 0.0 0.00 0.00 0.00 79 1011.4
20190425101704 61 360 0.0 0.0 0.00 0.00 0.00 80 1011.4
20190425101202 60 360 0.0 0.0 0.00 0.00 0.00 81 1011.3
20190425100700 60 360 0.0 0.0 0.00 0.00 0.00 82 1011.2
20190425100158 60 360 0.0 0.0 0.00 0.00 0.00 83 1011.2
20190425095656 60 360 0.0 0.0 0.00 0.00 0.00 82 1011.1
20190425095155 60 360 0.0 0.0 0.00 0.00 0.00 82 1011.0
20190425094652 60 360 0.0 0.0 0.00 0.00 0.00 82 1010.9
20190425094150 60 360 0.0 0.0 0.00 0.00 0.00 82 1010.9